Weather Service Report


752 
ASUS45 KPSR 260510
RWRAZ 

ARIZONA HOURLY REGIONAL WEATHER ROUNDUP
NATIONAL WEATHER SERVICE PHOENIX AZ
1000 PM MST WED MAY 25 2016

NOTE: FAIR INDICATES FEW OR NO CLOUDS BELOW 12,000 FEET WITH NO
SIGNIFICANT WEATHER AND/OR OBSTRUCTIONS TO VISIBILITY.

AZZ001>003-036-260600-
NORTHWEST ARIZONA
  
CITY           SKY/WX    TMP DP  RH WIND       PRES   REMARKS
BULLHEAD CITY  PTCLDY    77  32  19 NE12      29.87R                  
KINGMAN        CLOUDY    61  32  33 MISG      29.96S                  
$$

AZZ004>008-015-016-018-260600-
NORTH CENTRAL ARIZONA
  
CITY           SKY/WX    TMP DP  RH WIND       PRES   REMARKS
GRAND CANYON   PTCLDY    42  19  39 CALM      30.07S                  
WILLIAMS       CLOUDY    50  19  29 SW5       30.14S                  
PRESCOTT       PTCLDY    55  23  28 SW8       30.02R                  
FLAGSTAFF      PTCLDY    40  20  44 CALM      30.08S                  
PAYSON         CLEAR     59  19  21 CALM      30.05S                  
PAGE           MOCLDY    69  22  16 W5        29.92R                  
$$

AZZ009>014-017-260600-
NORTHEAST ARIZONA
  
CITY           SKY/WX    TMP DP  RH WIND       PRES   REMARKS
WINSLOW        CLEAR     51  19  28 SW7       30.00R                  
SAINT JOHNS    CLEAR     54  20  26 S8        30.04R                  
WINDOW ROCK    CLEAR     53  14  21 E3        30.08                   
SHOW LOW       CLEAR     46  16  29 CALM      30.10R                  
$$

AZZ023-260600-
GREATER PHOENIX AREA
  
CITY           SKY/WX    TMP DP  RH WIND       PRES   REMARKS
PHOENIX        CLEAR     78  23  13 W15       29.85R                  
BUCKEYE        CLEAR     72  25  17 W9        29.89R                  
LUKE AFB       CLEAR     77  24  14 W9        29.86R                  
DEER VALLEY    CLEAR     76  20  12 SW10      29.87R                  
SCOTTSDALE     CLEAR     77  22  13 W8G18     29.89R                  
MESA-GATEWAY   CLEAR     73  19  13 SW13      29.89R                  
$$

AZZ027-028-260600-
SOUTHWEST MARICOPA COUNTY AND PINAL COUNTY
  
CITY           SKY/WX    TMP DP  RH WIND       PRES   REMARKS
CASA GRANDE    CLEAR     72  21  15 S15       29.91R                  
GILA BEND      CLEAR     74  29  18 SW10      29.89R                  
$$

AZZ503-504-507>509-260600-
SOUTHEAST ARIZONA
  
CITY           SKY/WX    TMP DP  RH WIND       PRES   REMARKS
TUCSON         CLEAR     72  18  13 SW9G18    30.00R                  
DAVIS-MONTHAN  CLEAR     71  20  14 W8        29.98R                  
NOGALES        CLEAR     65  23  20 S8        30.06R                  
SIERRA VISTA   CLEAR     65  25  22 SW10      30.07R                  
DOUGLAS        CLEAR     84  21  10 SW14      30.05R                  
SAFFORD        CLEAR     72  18  13 NW15      29.94R                  
$$

AZZ020-021-025-026-031-260600-
SOUTHWEST ARIZONA
  
CITY           SKY/WX    TMP DP  RH WIND       PRES   REMARKS
YUMA           CLEAR     68  41  37 W12G23    29.93R                  
$$

CAZ031-033-041-043-047-048-061-260600-
SOUTHERN CALIFORNIA
  
CITY           SKY/WX    TMP DP  RH WIND       PRES   REMARKS
DOWNTOWN L.A.  CLEAR     61  52  72 CALM      30.08R                  
L.A. AIRPORT   CLEAR     59  53  80 W13       30.08R                  
SAN DIEGO      PTCLDY    63  52  67 W5        30.12S                  
BURBANK        CLEAR     59  50  72 SE9       30.07R                  
ONTARIO        MOCLDY    59  44  57 SW9       30.09R                  
RIVERSIDE      CLOUDY    62  40  44 VRB3      30.09R                  
PALM SPRINGS   CLEAR     70  39  32 W16G38    29.94R                  
EL CENTRO NAS  CLEAR     67  42  40 W23       29.95R                  
IMPERIAL       CLEAR     67  43  41 W18G24    29.92R                  
BLYTHE         CLEAR     72  45  37 SW13      29.88R                  
NEEDLES        CLEAR     75  34  22 W18       29.86R                  
$$

NVZ020-UTZ003-260600-
SOUTHERN NEVADA-UTAH
  
CITY           SKY/WX    TMP DP  RH WIND       PRES   REMARKS
LAS VEGAS      PTCLDY    70  35  27 NW9       29.88R                  
SALT LAKE CITY MOCLDY    59  44  57 N6        30.04R                  
$$

NMZ009-TXZ055-260600-
NEW MEXICO-WEST TEXAS
  
CITY           SKY/WX    TMP DP  RH WIND       PRES   REMARKS
ALBUQUERQUE    PTCLDY    69  13  11 SW5       29.98S                  
EL PASO        CLEAR     81  10   7 W21G32    29.97R                  
$$


........................KEY........................
SKY/WX - SKY CONDITION/WEATHER
TMP    - TEMPERATURE IN FAHRENHEIT
DP     - DEW POINT IN FAHRENHEIT
RH     - RELATIVE HUMIDITY IN PERCENT
WIND   - DIRECTION AND SPEED IN MILES PER HOUR (MPH)
VRB    - VARIABLE WIND DIRECTION
PRES   - MEAN SEA LEVEL PRESSURE IN INCHES OF MERCURY
         F - FALLING PRESSURE   R - RISING PRESSURE
         S - STEADY PRESSURE
VSB    - VISIBILITY IN MILES
HX     - HEAT INDEX IN FAHRENHEIT
WCI    - WIND CHILL INDEX IN FAHRENHEIT
TC     - TEMPERATURE IN CELSIUS WHICH IS ALSO KNOWN AS
         TEMPERATURE IN CENTIGRADE
AFB    - AIR FORCE BASE
         LUKE AFB IS LUKE AIR FORCE BASE
         DAVIS-MONTHAN IS DAVIS-MONTHAN AIR FORCE BASE
NAS    - NAVAL AIR STATION
         EL CENTRO NAS IS EL CENTRO NAVAL AIR STATION
N/A    - NOT AVAILABLE

  

Return to Home page


Western Regional Climate Center, wrcc@dri.edu